Orbital Elements at Epoch 2459200.5 (2020-Dec-17.0) TDB
Reference: JPL 26 (heliocentric ecliptic J2000)
Element | Value | Uncertainty (1-sigma) | Units |
e | .122542069786057 | 3.3705e-08 | |
a | 2.769498412649899 | 1.4519e-08 | au |
q | 2.430118344894581 | 9.8451e-08 | au |
i | 9.233879493184903 | 4.4652e-06 | deg |
node | 50.74627283826977 | 1.9596e-05 | deg |
peri | 230.8247521010592 | 2.6693e-05 | deg |
M | 1.412508948118901 | 1.7608e-05 | deg |
tp | 2459193.894756769096 (2020-Dec-10.39475677) | 8.234e-05 | TDB |
period | 1683.449557110431 4.61 | 1.3238e-05 3.624e-08 | d yr |
n | .2138466213492755 | 1.6817e-09 | deg/d |
Q | 3.108878480405216 | 1.6298e-08 | au |
|
| | Orbit Determination Parameters
Additional Information
|